[[{"header":{"parameterUnit":"m.s-1","parameterCategory":1,"la1":30.2992,"la2":30.254,"lo1":-89.0895,"lo2":-89.0443,"dy":0.0025,"dx":0.0025,"nx":19,"ny":19,"refTime":"2026-04-28T09:00:00:Z","depth":0,"parameterNumber":2,"parameterNumberName":"U-component_of_WINDS"},"data":[0,0,0,2.2612,2.2614,2.2709,2.2709,2.2822,2.2823,0,0,0,0,0,0,0,0,0,0,0,2.258,2.2581,2.2612,2.2614,2.2709,2.2709,2.2821,2.2823,0,0,0,0,0,0,0,0,0,0,0,2.258,2.258,2.2581,2.2614,2.2708,2.2709,2.2821,2.2752,0,0,0,0,0,0,0,0,0,0,2.2662,2.2629,2.258,2.2581,2.2615,2.2708,2.2709,2.2749,2.2757,2.2775,0,2.2792,0,2.2809,2.283,2.283,0,0,0,2.2616,2.2623,2.2652,2.2581,2.2616,2.2708,2.2667,2.2754,2.2762,2.2785,2.2794,2.2798,2.2811,2.283,2.2831,2.2931,2.2931,0,0,2.2611,2.2595,2.2646,2.2657,2.2643,2.2663,2.2669,2.2759,2.2767,2.2794,2.2801,2.2813,2.2831,2.2832,2.2931,2.2931,0,0,0,2.2594,2.2591,2.2618,2.2652,2.267,2.2666,2.2673,2.2763,2.2773,2.2802,2.2814,2.2832,2.2833,2.293,2.2931,2.2931,0,0,0,2.2591,2.2581,2.2616,2.2606,2.2668,2.2718,2.2675,2.2767,2.2777,2.2814,2.2832,2.2834,2.293,2.2931,2.2931,2.2934,0,0,0,2.2575,2.2579,2.2592,2.2605,2.2646,2.2717,2.2732,2.2769,2.2784,2.283,2.2834,2.293,2.2931,2.293,2.2933,2.2954,0,0,0,2.2553,2.2592,2.2592,2.264,2.2645,2.2717,2.2732,2.2787,2.2826,2.2832,2.293,2.2931,2.293,2.2932,2.2953,2.2969,2.2974,0,0,2.2593,2.2596,2.2626,2.2628,2.2696,2.2704,2.2771,2.2823,2.2842,2.29,2.2903,2.2931,2.2933,2.2954,2.301,2.3014,0,0,0,2.2633,2.2654,2.2676,2.2712,2.2752,2.2786,2.2829,2.2848,2.2897,2.2869,2.2945,2.2947,2.296,2.2968,2.2971,2.2983,2.2934,2.2934,2.2934,2.2667,2.2689,2.2738,2.2771,2.2806,2.2849,2.2879,2.2911,2.2924,2.2941,2.2958,2.2989,2.2998,2.3001,2.3012,2.2969,2.2969,2.2969,2.2969,2.2727,2.2759,2.2773,2.2827,2.2849,2.2893,2.2935,2.2942,2.2985,2.2979,2.2991,2.2981,2.3004,2.3015,2.2969,2.2969,2.2969,2.2969,2.2969,2.275,2.2769,2.2791,2.2845,2.2883,2.2915,2.2955,2.2974,2.2993,2.3005,2.3024,2.3024,2.3025,2.3013,2.3013,2.3013,2.3013,2.3013,2.3013,2.2765,2.279,2.2822,2.2867,2.2891,2.2926,2.2968,2.2992,2.3024,2.3035,2.3035,2.3044,2.3003,2.2991,2.3015,2.3015,2.3014,2.3014,2.3014,2.2816,2.2807,2.2857,2.2882,2.2934,2.297,2.2993,2.3041,2.3064,2.3082,2.3089,2.3056,2.306,2.3058,2.3048,2.3085,2.3085,2.3085,2.3085,2.2835,2.2839,2.2893,2.2931,2.297,2.2996,2.3049,2.308,2.3112,2.3127,2.3124,2.3113,2.311,2.3117,2.3113,2.3104,2.3154,2.3155,2.3155,2.2866,2.2875,2.2917,2.2948,2.299,2.3025,2.3075,2.3116,2.3149,2.3158,2.3138,2.3135,2.3118,2.3112,2.312,2.3113,2.3098,0,0]},{"header":{"parameterUnit":"m.s-1","parameterCategory":1,"la1":30.2992,"la2":30.254,"lo1":-89.0895,"lo2":-89.0443,"dy":0.0025,"dx":0.0025,"nx":19,"ny":19,"refTime":"2026-04-28T09:00:00:Z","depth":0,"parameterNumber":3,"parameterNumberName":"V-component_of_WINDS"},"data":[0,0,0,4.9333,4.9335,4.9425,4.9425,4.9534,4.9535,0,0,0,0,0,0,0,0,0,0,0,4.9307,4.9308,4.9333,4.9336,4.9425,4.9425,4.9534,4.9535,0,0,0,0,0,0,0,0,0,0,0,4.9307,4.9308,4.9309,4.9336,4.9424,4.9425,4.9534,4.9467,0,0,0,0,0,0,0,0,0,0,4.9381,4.9358,4.9308,4.9309,4.9336,4.9424,4.9425,4.9464,4.9471,4.9493,0,4.9515,0,4.9527,4.9542,4.9543,0,0,0,4.9334,4.9352,4.9376,4.9309,4.9337,4.9424,4.9384,4.9468,4.9476,4.9502,4.9516,4.952,4.9529,4.9543,4.9544,4.9679,4.968,0,0,4.9329,4.9323,4.9371,4.9382,4.9372,4.9381,4.9387,4.9473,4.9487,4.9517,4.9523,4.9531,4.9544,4.9545,4.9679,4.968,0,0,0,4.9316,4.9319,4.9341,4.9377,4.9394,4.9384,4.939,4.9483,4.9491,4.9524,4.9532,4.9544,4.9546,4.9678,4.9679,4.9709,0,0,0,4.9313,4.9312,4.9339,4.9336,4.9393,4.944,4.9398,4.9485,4.9495,4.9531,4.9544,4.9547,4.9677,4.9679,4.9707,4.9723,0,0,0,4.9301,4.931,4.9324,4.9335,4.9374,4.9439,4.9452,4.9487,4.95,4.9543,4.9547,4.9677,4.9678,4.9704,4.972,4.9758,0,0,0,4.9286,4.9346,4.9324,4.9395,4.9373,4.9458,4.9451,4.9514,4.9555,4.9545,4.9677,4.9679,4.9704,4.9718,4.9756,4.9789,4.9803,0,0,4.9358,4.9355,4.9397,4.938,4.9467,4.9445,4.9535,4.9577,4.9585,4.9646,4.965,4.9707,4.972,4.9758,4.9881,4.9892,0,0,0,4.9418,4.9448,4.9473,4.9513,4.9549,4.958,4.9609,4.9625,4.9678,4.9617,4.9732,4.9739,4.9761,4.9778,4.9787,4.9806,4.9686,4.9686,4.9686,4.951,4.9521,4.9591,4.9613,4.9651,4.9682,4.9714,4.9739,4.9735,4.9763,4.9781,4.9855,4.9874,4.9881,4.9901,4.9799,4.98,4.98,4.98,4.9617,4.9662,4.9659,4.9727,4.9736,4.9791,4.9822,4.9818,4.987,4.9842,4.9862,4.9831,4.9893,4.9911,4.9802,4.9802,4.9801,4.9801,4.9801,4.9679,4.9702,4.9723,4.9784,4.9829,4.9847,4.9897,4.9903,4.9908,4.9929,4.9949,4.9948,4.9948,4.9938,4.9938,4.9938,4.9939,4.9939,4.9939,4.9735,4.9757,4.9801,4.9846,4.9873,4.991,4.9942,4.9968,4.9997,4.9997,4.9998,4.9991,4.9897,4.9874,4.9943,4.9942,4.9942,4.9941,4.9941,4.984,4.9818,4.9886,4.9914,4.9967,5.0011,5.0019,5.0071,5.0093,5.0118,5.0108,5.0038,5.0033,5.0026,5.0006,5.0106,5.0106,5.0106,5.0106,4.9892,4.9891,4.9963,5.0007,5.0051,5.0066,5.0139,5.0165,5.0186,5.02,5.0186,5.0161,5.0153,5.0153,5.0143,5.0125,5.0253,5.0253,5.0253,4.9957,4.9961,5.0025,5.005,5.0092,5.0127,5.0197,5.0245,5.0264,5.0259,5.0211,5.0205,5.0164,5.015,5.0143,5.0127,5.0094,0,0]}]]